Location: ?
(35.3900°N, 139.4059°E)
Time: 13:27:26
(UTC+00:00)

Daily predictions for brighter satellites

Satellite Brightness Start Highest point End
(mag) Time Altitude Azimuth Time Altitude Azimuth Time Altitude Azimuth
Cosmos 2251 Rocket 4.4 12:11:03 47° NW 12:11:03 47° NW 12:15:52 10° N
Cosmos 2237 Rocket 3.9 12:10:56 10° N 12:13:43 24° NNE 12:13:43 24° NNE
ATLAS 2AS CENTAUR R/B 4.5 12:10:10 10° WSW 12:17:10 34° NW 12:24:07 10° NNE
ATLAS 3B CENTAUR R/B 4.2 12:06:11 10° WSW 12:25:37 59° S 12:26:09 58° SSE
Cosmos 2333 Rocket 3.3 12:22:37 10° NNW 12:26:49 41° WNW 12:26:49 41° WNW
Cosmos 2297 Rocket 4.4 12:38:41 16° NNE 12:38:41 16° NNE 12:39:47 10° NNE
USA 215 4.4 13:00:05 34° W 13:00:05 34° W 13:04:05 10° NW
SL-16 R/B 4.5 13:01:46 10° N 13:03:25 17° NNE 13:03:25 17° NNE
ATLAS 3B R/B 3.8 13:07:16 10° NW 13:11:49 41° WNW 13:11:49 41° WNW
SJ 16-02 4.4 16:29:19 13° NE 16:29:19 13° NE 16:29:50 10° NE
ADEOS II 4.0 16:27:03 10° NNE 16:29:25 25° NE 16:29:25 25° NE
Cosmos 2278 Rocket 3.7 16:44:07 31° ENE 16:44:07 31° ENE 16:47:36 10° NE
SL-16 R/B 3.9 16:57:17 28° NNW 16:57:17 28° NNW 17:00:09 10° NNW
USA 234 4.1 16:51:46 10° NNE 16:57:27 38° NNW 16:57:27 38° NNW
Centaur D AC-25 4.2 16:24:58 10° W 17:04:56 49° SSE 17:08:49 10° ESE
IDEFIX/ARIANE 42P 3.7 17:01:47 10° NNE 17:05:38 41° ENE 17:05:38 41° ENE
ADEOS Rocket 3.8 17:05:29 41° ESE 17:06:59 49° ENE 17:13:19 10° N
CZ-2D R/B 4.1 17:14:49 10° NNW 17:16:55 20° NNW 17:16:55 20° NNW
ARIANE 5 R/B 3.3 17:19:44 10° NNE 17:24:44 46° E 17:24:44 46° E
Resurs 1-4 Rocket 4.2 17:22:07 10° NNW 17:23:35 16° NNW 17:23:35 16° NNW
SL-08 R/B 4.4 17:22:51 10° N 17:29:00 79° E 17:29:11 78° ESE
IRS-P3 4.4 17:24:34 10° NNE 17:29:27 66° ENE 17:29:27 66° ENE
Meteor 2-4 Rocket 3.8 17:30:38 79° E 17:30:38 79° E 17:36:29 10° N
DELTA 2 R/B (1) 3.8 17:35:10 62° E 17:35:10 62° E 17:39:55 10° ENE
ATLAS 5 CENTAUR R/B 4.2 17:30:04 10° N 17:35:12 31° NE 17:41:00 10° ESE
Cosmos 1821 Rocket 4.1 17:35:56 10° N 17:42:15 75° E 17:44:49 38° SSE
X-37B 3.7 17:45:49 13° E 17:45:49 13° E 17:46:19 10° E
Gbstr 26 Del rocket 4.3 17:44:14 43° NW 17:44:17 43° NW 17:49:13 10° NE
Milstar 3 3.5 17:46:42 44° SSW 17:48:10 48° SSE 17:59:08 10° E
Nadezhda 3 Rocket 3.9 17:50:25 67° SW 17:51:12 76° W 17:57:34 10° N
NOSS 3-3 (A) 4.0 17:51:14 56° WNW 17:51:22 56° NW 17:57:34 10° NNE
NOSS 3-3 (C) 3.9 17:51:19 56° WNW 17:51:28 57° NW 17:57:40 10° NNE
Cosmos 158 Rocket 3.8 17:50:56 10° NNW 17:55:52 78° ENE 17:56:49 57° SE
SJ 16-02 3.3 18:06:18 18° NW 18:06:18 18° NW 18:08:09 10° NNW
Cosmos 2082 Rocket 3.0 18:01:39 10° N 18:07:06 50° ENE 18:12:31 10° SE
ADEOS II 3.8 18:07:51 10° NNW 18:10:21 18° NW 18:10:21 18° NW
MSX 3.9 18:05:50 10° N 18:11:29 59° WNW 18:12:33 50° WSW
Cosmos 2084 4.1 18:16:53 37° SSE 18:17:53 46° ESE 18:21:54 10° NE
Cosmos 1680 Rocket 3.6 18:16:49 10° NNW 18:22:08 77° ENE 18:27:26 10° SSE
ALOS 3.8 18:19:30 10° NNE 18:23:44 34° E 18:27:57 10° SSE
Okean 1-7 4.3 18:25:32 26° NW 18:25:32 26° NW 18:28:13 10° NNW
Cosmos 2278 Rocket 3.4 18:25:58 25° WNW 18:26:30 25° WNW 18:31:09 10° N
SL-08 R/B 3.4 18:24:56 37° SSW 18:26:39 58° W 18:31:29 10° NNW
Cosmos 1833 Rocket 2.7 18:21:33 10° NNW 18:27:01 53° WSW 18:32:28 10° S
Cosmos 1066 Rocket 4.2 18:26:34 24° S 18:30:16 84° W 18:36:10 10° N
COSMOS 2406 3.4 18:27:56 10° NW 18:33:17 44° WSW 18:38:35 10° S
Cosmos 1934 Rocket 3.9 18:27:03 10° N 18:33:22 78° W 18:39:34 10° S
CZ-4C R/B 3.7 18:26:08 10° NNW 18:33:34 58° NE 18:41:56 10° SE
CZ-2C R/B 2.3 18:29:39 10° NNE 18:34:24 89° ESE 18:37:38 21° SSW
CZ-2D R/B 4.0 18:32:42 10° N 18:36:29 37° WNW 18:36:40 37° W
Meteor 1-13 Rocket 4.4 18:34:32 31° SW 18:37:07 53° W 18:42:47 10° N
Cosmos 1605 Rocket 4.0 18:38:31 10° N 18:44:38 81° E 18:50:47 10° S
IDEFIX/ARIANE 42P 4.1 18:42:32 10° NNW 18:45:59 18° WNW 18:46:27 18° WNW
Cosmos 1356 Rocket 3.5 18:42:17 10° N 18:46:23 76° E 18:50:32 10° SSE
Okean 3 4.2 18:45:57 32° W 18:46:30 33° WNW 18:50:25 10° NNW
Cosmos 923 Rocket 4.3 18:42:51 10° NNW 18:47:46 43° WSW 18:52:41 10° S
GP-B 4.4 18:44:37 10° NNE 18:48:51 42° E 18:53:02 10° SSE
Cosmos 1674 Rocket 4.1 18:47:40 10° S 18:51:53 58° E 18:56:10 10° NNE
ADEOS Rocket 4.1 18:52:25 22° W 18:52:50 22° W 18:57:40 10° NW
Cosmos 2297 3.8 18:49:32 22° SW 18:53:17 63° WNW 18:58:59 10° NNE
Cosmos 1842 4.2 18:49:55 10° SSE 18:53:40 48° E 18:57:24 10° NNE
Cosmos 1943 Rocket 2.1 18:51:33 14° SSW 18:56:25 85° WNW 19:02:06 10° NNE
Cosmos 2369 Rocket 3.1 18:51:39 10° S 18:56:59 49° ESE 19:02:22 10° NNE
Cosmos 489 Rocket 4.4 18:55:29 10° NNW 19:01:42 86° WSW 19:07:55 10° SSE
ARIANE 5 R/B 4.0 18:59:50 10° NNW 19:03:27 19° WNW 19:05:05 17° W
Cosmos 2221 Rocket 3.8 19:00:32 17° SSW 19:03:48 48° W 19:08:08 10° N
Cosmos 2151 Rocket 3.7 19:01:14 10° N 19:05:46 82° E 19:10:16 10° S
CZ-2C R/B 3.8 19:07:38 10° NNW 19:10:47 26° WNW 19:12:29 19° WSW
Okean 2 Rocket 3.0 19:07:18 10° NNW 19:11:42 62° W 19:16:02 10° S
CZ-4C R/B 3.9 19:09:54 10° SSE 19:13:22 53° ENE 19:16:50 10° N
Cosmos 1727 Rocket 3.9 19:08:05 10° SSW 19:14:14 74° W 19:20:29 10° N
Landsat 5 4.0 19:10:11 10° SSE 19:14:31 68° ENE 19:18:59 10° N
SJ-6F 4.4 19:13:37 10° N 19:17:45 82° WNW 19:21:51 10° SSW
Cosmos 1484 Rocket 2.8 19:13:48 10° N 19:17:46 75° WNW 19:21:45 10° SSW
FALCON 9 DEB 3.1 19:15:59 10° NW 19:19:27 87° SW 19:22:54 10° SE
ATLAS 5 CENTAUR R/B 2.7 19:14:11 10° NW 19:20:02 48° WSW 19:26:40 10° S
X-37B 1.3 19:18:06 17° W 19:20:14 42° NNW 19:23:17 10° NE
DELTA 2 R/B (1) 4.0 19:15:55 12° W 19:20:57 58° N 19:26:29 10° ENE
Cosmos 1766 3.4 19:22:15 10° NNW 19:26:08 52° W 19:29:59 10° S
Okean 2 3.4 19:22:48 10° S 19:26:54 86° W 19:31:04 10° N
ASTRO E2 4.1 19:24:52 10° SW 19:28:12 27° SSE 19:31:34 10° ESE
Meteor 2-20 Rocket 4.4 19:24:35 10° SSW 19:30:41 75° W 19:36:50 10° N
SL-4 R/B 4.4 19:27:48 10° NNW 19:31:57 28° NNE 19:35:57 10° E
Cosmos 1975 Rocket 4.5 19:33:32 10° SSE 19:37:46 43° E 19:42:00 10° NNE
NOSS 3-4 (A) 4.0 19:31:48 10° NNW 19:39:06 88° WSW 19:47:12 10° SSE
NOSS 3-4 (C) 4.0 19:31:55 10° NNW 19:39:12 89° WSW 19:47:15 10° SSE
Cosmos 1459 Rocket 4.3 19:33:05 10° N 19:39:28 78° E 19:45:48 10° S
SJ-12 4.2 19:37:12 10° NNE 19:41:20 76° ESE 19:45:25 10° S
Cosmos 2150 Rocket 4.2 19:37:47 10° SSW 19:43:12 66° WNW 19:48:38 10° NNE
Cosmos 1125 Rocket 3.5 19:39:24 10° SSW 19:44:42 83° WNW 19:50:01 10° NNE
Cosmos 1400 Rocket 3.3 19:40:58 10° N 19:45:03 68° E 19:49:09 10° SSE
MOS 1 Rocket 3.7 19:40:13 10° SSE 19:45:31 89° ENE 19:51:00 10° NNW
